GFSCGP_925_spd_000.txt.gz
Wind_Speed
3 4 9 22 14 13 3 6 8 7 10 6 10 17 18 22 11 11 16 19 21 21 27 23 27 32 37 38 39 43 43 46 46 45 43 37 39 37 35 34 33 32 30 28
2 10 18 11 5 10 12 18 19 15 15 6 16 23 18 12 19 22 20 21 21 20 21 7 20 27 34 39 41 43 45 48 49 47 42 33 38 41 39 36 34 33 32 30
20 11 13 10 7 6 15 15 18 19 6 5 9 19 10 13 14 20 15 20 21 26 22 12 9 23 28 34 41 44 46 48 48 45 41 31 32 29 35 36 35 35 33 31
10 9 11 10 8 15 24 13 14 8 4 12 4 23 6 8 13 11 15 17 18 22 17 14 9 10 27 34 35 37 41 44 45 46 45 41 35 26 32 35 41 37 35 33
9 5 7 10 22 11 21 5 6 2 4 5 3 6 4 8 7 12 15 15 18 18 14 12 11 19 26 29 35 38 42 44 44 48 45 43 33 30 31 34 38 38 36 34
10 2 5 9 4 9 2 4 5 4 1 11 10 9 6 6 7 6 10 15 15 18 10 8 6 14 20 26 31 37 40 42 44 47 44 44 42 38 32 37 39 43 40 38
3 6 3 5 4 2 4 5 3 3 1 11 9 6 19 6 11 11 14 15 13 12 5 7 9 10 18 29 33 34 38 38 45 47 49 50 48 44 42 41 40 39 42 45
2 17 9 6 10 9 11 12 7 7 9 19 4 10 12 11 11 11 10 13 11 8 8 10 10 11 18 25 31 32 36 36 43 49 50 49 47 45 41 43 41 43 44 45
5 16 3 4 3 8 2 5 13 2 2 1 10 14 10 4 9 7 10 13 16 10 9 10 7 9 17 23 30 37 36 36 42 43 40 44 44 44 42 42 44 43 42 43
3 7 4 1 2 3 7 3 2 2 5 8 10 9 15 9 6 7 13 14 14 9 4 2 5 7 16 22 29 34 37 40 37 38 41 43 45 47 41 41 43 43 41 40
3 5 10 2 7 8 2 5 5 3 4 12 16 15 6 8 1 6 10 10 9 10 7 8 7 10 17 21 27 32 34 35 38 45 46 45 47 47 45 44 43 45 43 41
6 5 6 17 11 5 6 15 16 9 10 5 4 10 29 28 20 20 18 10 6 8 10 9 8 7 13 21 26 35 35 38 49 47 42 46 44 45 46 47 46 45 43 41
4 4 11 6 11 14 8 10 9 7 3 19 16 14 24 24 22 22 16 18 10 11 9 6 6 8 11 20 25 31 34 44 40 37 43 40 43 43 45 45 47 45 42 41
8 14 18 19 17 3 6 9 9 14 14 17 18 24 24 26 28 29 17 16 10 13 9 8 9 10 9 19 24 27 32 39 38 41 42 41 42 48 46 44 45 45 44 44
9 22 18 27 26 24 28 29 30 28 30 29 31 29 22 24 28 25 28 25 18 9 9 14 13 11 12 14 24 31 35 37 43 41 38 42 45 40 38 41 44 43 43 44
6 12 23 30 29 26 27 33 34 34 33 35 29 30 28 28 29 29 30 28 26 16 17 16 12 11 11 12 23 27 30 33 37 36 39 37 35 39 43 41 42 42 43 43
9 9 14 18 8 22 18 24 35 35 29 26 27 26 18 17 21 22 18 19 18 19 19 19 20 21 18 25 32 27 34 36 37 36 33 35 37 38 40 39 40 43 45 45
17 18 14 20 20 27 15 7 15 26 26 22 11 16 17 20 24 11 20 22 23 22 22 20 18 19 33 37 34 35 29 28 29 27 27 32 35 34 35 36 38 40 43 46
18 17 11 13 20 21 20 7 8 8 4 13 12 13 15 20 20 5 21 21 19 18 15 15 24 29 31 31 36 31 21 22 23 24 29 33 36 33 35 35 36 36 36 37
15 11 9 13 10 12 6 12 17 14 8 11 12 12 16 16 14 16 24 20 19 20 20 19 23 28 32 36 36 21 14 13 18 20 20 23 26 29 31 30 32 33 35 32
4 5 8 12 13 7 12 8 10 5 8 8 8 10 9 10 8 18 19 16 15 20 27 31 28 24 26 29 40 25 19 13 10 12 16 22 28 30 29 30 30 29 29 28
5 4 4 4 4 13 17 7 6 9 7 8 13 13 13 14 14 15 15 18 20 21 24 25 26 29 30 28 27 25 22 27 15 11 14 20 25 26 29 32 29 30 29 26
4 6 3 4 4 20 16 8 11 0 4 4 6 8 10 14 15 14 15 17 18 20 24 27 24 27 30 25 25 16 28 31 20 12 16 19 21 23 28 29 26 25 28 26
4 7 4 2 7 10 17 15 9 3 4 4 5 7 9 12 14 15 14 15 16 16 18 27 27 23 28 29 30 24 30 30 23 22 19 21 23 26 28 26 25 25 26 26
7 1 8 10 15 17 14 7 3 5 4 7 9 10 11 11 14 13 14 15 15 18 26 26 24 25 30 33 34 29 29 29 24 23 20 20 19 28 24 26 32 34 37 40
11 15 11 14 16 13 17 9 1 6 5 5 10 13 14 12 15 16 15 15 16 16 23 23 27 28 30 30 34 36 31 27 23 19 18 20 22 22 20 21 18 26 23 28

GFSCGP_925_spd_003.txt.gz
Wind_Speed
3 4 9 22 16 14 4 7 9 8 10 2 11 16 16 18 15 21 19 18 21 22 27 30 27 28 30 33 38 41 42 44 43 44 43 40 42 41 40 39 38 36 36 34
1 11 20 7 4 7 8 13 17 18 17 5 17 24 15 12 19 23 26 22 24 21 19 20 11 23 31 36 39 38 42 43 45 44 42 30 35 42 43 41 39 39 36 35
18 10 11 9 8 5 11 11 18 17 6 5 10 21 14 10 9 18 22 19 19 20 22 22 8 19 26 32 36 41 44 45 44 42 38 30 31 26 36 38 40 41 37 35
9 7 12 6 7 14 22 12 14 10 2 10 2 19 4 10 18 16 19 17 13 18 18 15 7 8 27 35 33 34 36 41 42 45 45 41 36 27 35 39 45 42 39 37
9 2 4 7 16 9 12 6 6 3 4 5 4 4 2 5 9 12 11 11 14 15 14 15 7 16 26 28 29 32 34 37 40 46 47 47 36 34 34 39 42 42 41 39
10 3 6 8 4 10 3 3 3 4 3 7 10 7 24 5 7 4 6 10 11 11 14 9 10 14 15 19 26 30 34 36 41 45 45 44 40 38 35 38 39 43 43 42
3 5 3 5 5 2 4 4 4 3 2 10 7 6 26 8 8 8 13 10 11 11 10 17 10 8 9 18 25 30 34 35 39 44 46 46 43 42 41 42 40 41 43 47
4 16 9 6 9 8 7 9 6 7 8 16 7 9 18 8 9 6 6 8 9 11 11 10 11 6 7 16 20 24 30 31 40 43 44 46 46 42 41 42 41 44 47 47
5 10 2 5 4 9 5 6 8 3 0 3 12 17 15 8 6 3 6 7 8 9 13 11 11 3 6 10 18 22 26 29 33 40 38 41 42 40 42 41 42 42 42 44
2 8 3 2 1 4 6 2 1 1 4 11 8 16 16 16 17 6 8 9 9 10 11 10 7 5 6 12 18 22 25 30 34 38 42 42 45 47 46 43 43 44 42 41
4 3 9 1 6 16 1 4 5 1 5 16 19 13 24 28 7 7 12 13 11 8 8 7 7 6 8 10 15 21 27 33 36 40 43 43 48 48 46 46 45 44 42 42
7 5 7 19 6 5 5 8 5 5 10 9 15 16 13 24 10 9 18 21 14 9 10 8 8 3 7 11 17 26 30 36 41 42 40 47 41 41 43 46 49 46 44 42
2 3 10 6 8 3 6 11 13 17 15 21 19 19 11 19 20 18 13 9 9 8 9 11 13 12 11 17 23 28 28 36 39 37 40 37 39 41 46 46 46 46 45 44
6 8 16 13 11 16 17 19 20 13 12 20 19 22 17 22 24 27 16 17 20 19 18 17 15 14 21 26 25 28 32 34 36 37 40 41 44 51 51 44 45 48 47 46
2 14 15 20 16 16 20 24 29 30 26 22 22 24 22 23 14 18 16 19 19 19 18 18 16 15 19 29 35 39 38 35 33 35 35 41 44 43 39 43 46 46 46 46
1 8 13 22 22 17 18 13 15 13 15 21 24 29 20 18 20 22 17 18 20 18 16 15 16 16 16 24 27 32 37 41 35 33 39 41 35 36 41 39 42 43 43 44
6 6 5 20 17 14 15 18 17 21 13 8 8 7 13 18 19 19 15 19 17 16 15 16 16 15 24 29 31 29 34 40 41 33 37 35 36 38 39 38 35 34 38 38
14 13 8 16 17 22 11 2 5 5 8 11 9 8 12 14 16 15 10 18 17 17 15 17 11 21 27 32 33 33 35 33 36 31 28 30 30 32 34 33 35 35 37 39
15 13 6 3 6 12 15 7 6 5 4 9 4 4 7 11 14 7 14 15 16 14 14 18 25 28 27 29 30 33 34 33 28 28 28 27 20 22 23 26 28 28 29 31
4 4 3 3 4 5 2 7 6 7 6 4 4 3 7 9 12 14 14 14 13 16 19 21 24 27 29 30 30 29 28 29 28 34 29 28 24 21 24 24 24 24 29 31
3 3 3 4 4 7 3 7 4 4 7 12 4 5 3 5 7 16 16 14 15 17 22 25 23 23 25 29 34 31 28 26 28 41 35 22 16 18 20 19 22 25 26 24
4 3 3 2 1 9 1 7 1 5 4 6 2 4 7 8 10 12 14 14 14 16 21 22 22 22 25 28 27 28 29 30 31 37 38 26 13 12 14 17 19 21 22 23
3 7 5 8 6 6 16 16 12 6 7 5 5 7 7 8 11 11 12 14 14 17 21 24 20 25 26 25 24 27 32 33 33 30 31 29 23 17 17 18 18 16 18 17
7 12 4 2 12 16 12 11 12 12 10 5 7 7 4 10 11 13 13 15 15 19 20 22 21 24 30 30 30 30 31 29 32 32 30 27 23 19 19 22 25 24 23 19
8 4 7 10 16 16 19 14 15 8 5 6 4 4 9 9 13 12 14 15 14 20 25 24 24 26 32 32 35 32 30 30 32 32 31 25 23 20 19 22 22 26 29 33
9 17 11 14 20 13 14 14 3 3 6 1 6 10 9 9 14 14 16 18 19 21 27 25 26 29 34 33 37 39 31 27 29 31 29 27 21 19 21 20 19 24 24 24

GFSCGP_925_spd_006.txt.gz
Wind_Speed
1 4 9 20 13 9 2 6 11 8 9 4 20 22 18 16 11 25 22 18 20 21 22 30 27 25 25 29 31 36 38 41 42 42 42 39 46 47 44 45 42 41 40 38
4 7 17 2 2 6 5 11 18 14 14 5 13 21 17 20 21 20 24 24 18 17 18 20 16 15 20 28 31 33 39 40 44 43 40 28 35 42 48 47 45 44 42 39
11 10 3 6 3 8 4 7 17 14 7 5 10 14 8 9 8 14 18 22 10 14 20 20 7 11 18 25 29 34 39 42 41 39 35 29 27 23 39 42 45 45 43 42
6 3 6 3 7 9 15 11 13 11 6 7 5 15 7 8 10 8 16 8 12 12 9 10 10 8 18 27 27 30 32 35 39 42 42 41 33 25 37 41 48 49 47 45
7 3 2 4 9 8 11 4 7 3 4 5 1 3 2 4 6 11 9 9 7 8 8 11 11 16 24 18 20 27 29 32 35 42 44 44 35 32 29 35 42 45 47 45
7 0 6 8 7 9 2 2 4 4 2 6 9 8 20 3 4 3 8 15 9 9 11 12 11 14 21 15 12 19 26 31 33 37 39 39 33 31 29 35 38 42 43 45
2 5 4 4 3 1 3 4 3 3 1 9 3 3 15 9 15 8 10 10 7 9 10 11 11 12 19 12 5 12 19 24 29 34 37 38 38 40 40 41 39 41 42 47
5 16 6 5 9 9 8 9 6 7 5 12 4 7 18 5 7 11 7 7 5 9 8 10 10 6 15 11 4 10 16 20 25 32 36 37 37 35 36 39 40 42 45 50
4 11 3 6 4 4 4 5 3 2 2 2 12 14 14 14 6 4 2 5 7 9 9 10 11 11 14 12 8 11 15 20 24 29 32 35 38 39 38 38 38 39 40 44
4 11 5 3 3 5 7 3 2 1 3 6 7 13 12 22 24 7 8 8 9 9 10 10 14 17 26 19 16 13 13 17 19 25 31 35 38 40 42 40 41 42 41 41
2 3 7 0 7 12 2 4 3 2 5 10 16 12 10 21 22 8 10 11 14 18 18 18 17 25 27 29 29 24 19 20 22 23 25 29 32 35 37 42 43 43 41 41
9 5 12 25 6 4 5 11 9 11 9 10 13 12 14 16 22 20 19 16 16 17 18 16 14 20 24 26 29 31 33 32 33 33 29 31 33 34 35 41 44 44 43 42
4 4 2 4 5 4 1 2 4 10 6 13 12 7 8 12 18 19 18 18 16 16 17 17 17 16 22 25 26 28 29 31 32 29 34 35 33 35 40 44 45 44 45 46
3 5 10 14 13 7 11 10 12 13 9 14 14 21 17 13 13 16 13 15 18 18 17 16 16 15 22 26 25 27 27 30 33 32 28 31 33 33 38 39 41 43 44 44
2 12 15 18 11 7 8 13 18 18 17 12 19 20 8 10 13 14 12 15 14 17 18 16 16 14 22 25 28 30 29 30 30 29 33 32 27 31 33 36 39 41 43 45
2 3 5 13 19 14 19 18 19 21 20 16 18 11 4 3 7 9 9 10 16 15 15 14 15 15 21 28 29 31 30 34 35 32 31 33 34 27 33 36 36 39 41 41
2 3 6 18 12 8 12 21 20 18 19 3 10 2 1 4 8 11 11 7 12 12 15 12 15 16 23 26 28 29 30 30 31 30 31 35 37 37 32 29 33 37 38 37
9 11 5 12 9 19 7 5 8 9 6 6 5 3 6 6 5 10 5 5 9 11 11 11 12 18 23 28 27 28 31 31 28 28 27 32 36 36 35 29 27 31 31 35
16 11 4 4 7 8 8 3 2 1 5 5 4 6 7 8 5 3 3 6 8 11 8 13 18 21 24 27 28 29 31 30 28 29 32 35 37 37 35 27 26 28 28 28
2 12 8 2 4 6 2 2 2 3 4 8 6 7 7 4 5 9 8 5 9 14 13 17 20 21 22 27 25 26 27 27 26 28 31 33 35 36 34 29 24 25 26 26
3 3 6 6 4 7 4 5 1 5 5 6 5 8 8 5 6 9 11 7 11 15 19 21 21 19 22 23 24 26 25 26 29 30 34 34 31 35 35 29 24 24 24 22
5 4 4 2 3 7 4 3 4 6 4 4 4 11 11 9 9 10 10 12 9 11 21 24 21 23 28 25 23 24 27 30 29 32 32 31 33 30 32 27 27 21 23 21
2 6 4 7 6 4 4 8 12 4 7 7 8 11 8 8 12 12 11 14 13 18 22 23 20 26 32 27 24 24 30 28 32 33 33 33 33 31 29 26 22 21 21 17
5 4 10 14 14 17 18 18 6 9 14 14 9 7 5 10 10 12 12 13 14 21 22 24 23 25 30 32 30 29 30 29 29 32 34 34 31 31 29 25 24 22 20 20
7 5 5 12 17 14 16 16 16 16 11 4 4 3 4 5 12 11 13 15 15 23 27 25 24 26 33 36 36 35 34 30 32 33 33 32 30 29 30 28 25 25 27 28
10 17 9 12 19 15 16 17 2 1 2 3 4 7 6 7 11 12 15 19 21 23 29 28 31 31 36 37 39 36 33 32 34 34 32 29 27 28 28 27 25 26 30 27

GFSCGP_925_spd_009.txt.gz
Wind_Speed
2 4 8 14 15 3 3 5 6 13 12 4 24 19 14 16 14 23 24 22 15 15 19 17 18 20 21 21 25 30 33 36 39 41 39 37 46 47 52 52 52 48 46 45
4 7 17 3 5 8 7 8 15 8 11 3 13 21 21 20 22 19 21 19 9 9 16 15 14 15 19 21 21 26 32 36 42 43 41 28 33 34 44 50 52 49 49 48
8 6 3 6 4 7 4 6 10 10 7 6 8 8 4 7 6 5 12 8 9 10 12 14 15 22 20 19 24 24 30 35 38 38 35 29 21 23 33 41 48 51 51 49
6 3 6 4 6 7 7 10 10 6 5 4 6 13 5 7 9 8 5 5 7 8 8 7 9 18 27 24 19 20 25 29 32 36 33 38 32 23 29 34 41 50 51 51
7 6 4 4 8 8 10 3 3 2 3 4 1 3 5 3 7 7 6 3 3 5 5 14 16 24 31 28 21 14 14 23 26 35 36 33 27 27 23 33 37 44 50 50
6 3 5 7 4 6 4 3 5 4 2 4 8 7 2 4 5 1 2 9 3 13 13 17 17 22 24 34 26 18 6 11 19 25 28 31 28 25 24 30 34 41 45 48
1 5 2 2 1 1 3 4 4 3 1 8 1 2 7 5 10 5 8 10 9 9 12 17 20 21 29 31 30 28 18 10 10 16 24 28 29 30 30 29 27 31 37 45
3 16 7 5 7 7 7 9 6 7 6 9 2 7 13 8 5 5 7 7 14 19 18 18 19 27 30 34 35 32 25 17 12 11 17 22 27 29 31 33 33 35 40 47
5 8 1 5 5 6 3 6 4 1 2 1 7 12 14 8 7 13 17 20 18 18 18 18 21 28 30 32 34 36 34 30 25 20 16 20 24 28 32 32 30 32 34 37
2 8 4 3 1 5 7 1 1 2 3 13 7 14 14 13 12 13 15 14 12 13 15 15 16 23 27 28 30 33 35 33 34 33 24 22 23 27 31 32 33 35 35 35
3 7 11 2 7 8 2 4 4 3 5 11 10 7 8 8 9 9 8 7 9 10 11 11 12 17 20 25 29 31 31 33 35 35 35 28 24 28 30 34 33 34 36 35
5 4 6 11 7 1 2 7 7 6 7 5 8 9 5 12 11 9 7 9 10 11 11 10 14 15 18 21 24 28 28 29 34 36 36 35 34 24 26 32 34 33 36 37
1 3 6 5 3 3 2 1 5 4 4 13 11 4 5 9 10 11 9 9 8 9 11 11 14 17 19 22 22 23 27 28 29 31 33 36 38 33 27 27 30 31 34 37
1 4 13 15 8 3 8 15 6 6 7 11 11 12 10 7 11 10 8 6 7 9 11 10 8 15 21 21 21 22 24 26 31 31 26 23 28 33 36 33 29 31 33 35
3 8 8 12 15 6 8 10 14 15 16 10 16 19 21 2 3 5 7 5 8 10 9 10 9 9 17 21 22 21 21 24 30 29 28 27 28 32 35 35 33 28 31 35
2 8 3 7 8 8 14 16 19 20 18 15 18 22 5 3 3 4 6 3 7 10 10 10 9 11 14 19 22 25 23 23 23 22 24 28 28 31 31 35 35 32 29 30
3 2 3 19 11 7 10 17 15 14 17 13 16 3 2 2 3 5 4 3 5 8 9 11 8 10 16 20 21 20 26 31 31 25 25 25 28 30 34 36 37 35 31 28
7 6 4 11 4 20 6 3 1 6 2 4 4 2 5 6 5 6 4 6 6 9 9 10 11 14 19 24 28 27 28 30 27 25 27 27 31 34 35 36 35 37 33 28
17 11 5 8 11 12 13 5 4 4 4 6 6 3 4 4 2 7 8 7 7 7 10 15 19 22 23 26 28 28 25 28 27 24 25 28 30 32 27 27 32 37 38 31
6 13 10 2 4 6 2 1 1 3 4 6 5 5 5 1 2 10 8 6 7 13 17 18 22 25 23 26 24 25 24 23 25 24 27 30 32 32 30 31 30 29 32 33
3 2 11 11 8 6 6 4 2 5 5 5 5 8 7 6 11 10 4 6 11 14 17 21 23 23 27 27 24 24 26 26 26 28 30 31 29 29 31 32 33 34 32 30
4 3 3 3 1 7 4 2 5 5 4 6 6 10 8 10 13 13 12 10 8 10 21 23 21 25 29 29 25 26 28 30 29 32 31 32 33 32 32 32 35 32 29 27
3 5 4 9 6 3 5 6 15 11 10 13 5 9 8 11 11 11 7 6 8 17 21 24 23 27 32 31 26 27 34 30 30 28 31 36 34 35 34 31 34 31 28 24
5 6 8 11 12 14 17 17 12 9 12 9 6 7 5 7 6 7 7 11 12 19 20 21 22 25 32 33 30 29 33 32 31 33 37 36 34 36 35 32 31 30 29 25
9 4 6 12 14 14 17 16 17 15 9 5 2 1 1 3 7 6 10 12 15 20 23 23 24 25 32 36 38 35 34 33 35 36 37 35 34 34 33 32 31 30 32 30
12 17 10 14 16 14 19 16 1 3 1 3 3 3 1 3 8 9 11 16 19 23 25 27 29 30 34 37 39 37 35 34 34 35 33 31 31 31 30 31 34 35 39 40

GFSCGP_925_spd_015.txt.gz
Wind_Speed
8 8 10 16 16 19 20 20 21 20 19 20 18 17 19 19 23 19 15 10 7 11 14 22 24 24 24 23 20 15 8 6 8 13 15 18 20 20 20 22 23 24 24 26
5 12 16 16 8 13 16 19 20 19 13 2 14 19 21 19 20 14 10 8 12 11 15 18 22 25 26 25 25 24 19 7 5 9 9 12 12 16 17 18 19 21 24 26
17 14 4 10 14 16 17 17 19 19 17 13 13 15 14 10 16 10 4 15 15 14 14 16 22 26 25 26 26 23 20 15 11 6 5 7 7 6 9 13 16 17 20 22
12 9 8 11 15 14 16 13 9 11 7 11 7 11 12 13 8 14 13 13 13 14 14 15 19 27 30 28 27 28 26 22 16 10 5 8 5 8 8 11 13 14 18 22
1 5 3 8 8 5 8 3 7 8 11 13 11 13 9 16 11 7 12 10 12 12 12 13 16 19 22 25 26 26 25 23 21 16 9 8 9 11 11 6 8 13 16 20
17 2 3 9 1 7 3 7 12 11 8 10 7 7 4 4 2 7 9 10 10 9 11 13 16 18 20 20 21 22 23 25 26 22 19 15 11 12 14 12 11 11 12 16
5 9 4 3 7 5 5 8 8 9 10 18 12 7 12 13 3 7 9 8 8 9 10 11 11 15 16 18 18 18 25 28 28 29 26 20 17 13 12 14 14 11 12 12
13 18 5 8 4 8 12 10 8 13 16 16 15 11 11 5 10 10 11 10 8 9 9 10 12 16 16 17 20 23 26 26 24 23 23 24 23 18 14 14 15 15 14 14
10 12 7 3 2 2 3 6 6 6 8 9 14 21 24 13 12 9 10 9 8 7 8 9 11 14 17 21 22 22 24 23 22 20 19 20 21 22 20 18 16 14 16 16
3 12 4 3 1 8 8 6 5 5 5 14 17 23 16 16 9 8 6 7 7 9 9 10 12 15 16 18 20 20 19 19 19 20 21 19 19 19 19 19 21 20 17 17
3 4 17 9 9 14 9 8 10 12 9 12 17 13 8 9 7 7 5 5 7 8 9 9 11 13 13 13 14 16 17 17 17 18 18 20 20 21 21 21 22 23 22 19
10 5 10 22 19 17 13 18 18 8 5 10 12 14 14 6 3 4 3 2 3 4 5 5 5 8 11 12 11 12 14 16 17 16 16 17 19 24 25 26 27 26 25 25
4 3 5 9 13 5 5 9 10 13 5 18 15 12 7 5 2 2 5 5 3 1 3 3 5 7 9 9 11 12 13 13 14 15 14 14 14 17 20 24 28 29 29 27
0 7 13 13 17 18 14 13 7 6 5 9 11 21 24 14 11 6 9 6 7 3 1 4 6 10 11 13 14 14 14 15 16 17 16 14 14 15 16 22 26 28 29 28
4 11 15 18 21 22 20 20 25 25 25 23 26 23 22 21 17 12 8 3 5 4 3 4 5 7 11 11 13 14 15 15 17 19 21 20 20 21 22 21 23 25 27 27
9 11 12 17 20 20 22 25 26 23 24 25 25 27 22 8 4 2 2 4 7 7 5 6 6 8 10 12 13 13 16 16 16 25 28 29 32 31 28 25 24 24 22 21
8 6 7 19 15 17 16 22 23 24 24 24 23 13 8 5 3 4 6 7 8 10 8 8 8 11 14 16 16 16 18 17 18 23 25 27 29 28 29 31 33 29 27 26
12 12 9 14 12 19 14 13 14 16 14 11 7 2 2 2 6 8 8 10 11 11 12 11 12 15 16 17 17 17 17 18 21 22 23 24 23 25 27 28 29 31 29 28
17 15 8 9 13 18 25 20 18 15 16 8 6 5 2 8 10 13 9 7 11 11 13 15 14 14 18 18 16 17 17 19 20 22 24 25 26 29 30 31 31 32 30 31
6 14 12 10 15 17 16 1 1 3 12 6 6 3 7 10 10 12 12 11 11 14 16 13 12 16 18 19 19 19 22 23 23 24 26 27 29 31 32 32 34 35 33 35
3 5 14 13 15 12 5 5 3 7 8 8 5 8 11 11 11 14 12 13 14 13 12 11 14 17 18 19 20 22 24 25 27 28 28 29 30 31 33 35 35 35 35 36
9 7 6 4 6 12 4 5 6 3 3 5 11 14 14 13 12 12 13 11 9 8 10 13 15 18 20 20 20 25 27 29 30 32 33 32 32 32 32 34 37 36 36 37
7 10 7 8 6 3 9 10 10 11 12 15 15 14 12 12 12 12 11 9 8 11 11 13 13 19 22 19 19 24 28 29 32 33 34 34 33 33 32 33 34 33 32 33
15 16 12 12 16 23 19 19 18 16 17 16 14 13 10 12 10 9 6 6 7 10 11 13 15 18 23 21 22 23 28 29 30 32 33 32 32 33 32 31 30 30 29 29
12 5 11 13 20 19 20 18 19 18 17 15 11 8 9 6 7 5 5 5 8 10 12 13 16 19 23 25 25 26 27 29 31 31 31 31 31 31 32 31 31 31 32 33
16 21 12 15 19 16 18 16 14 13 15 12 8 6 3 2 4 3 4 6 9 11 13 16 17 20 24 26 27 28 27 27 30 31 29 29 31 31 31 31 32 33 37 39

GFSCGP_925_spd_021.txt.gz
Wind_Speed
3 4 6 11 10 5 3 3 4 5 9 3 7 5 9 9 9 6 9 9 11 12 14 23 28 32 33 35 33 30 28 25 18 15 10 6 5 3 3 9 14 16 18 21
4 5 13 6 5 7 6 4 6 5 6 1 8 8 11 11 5 7 13 9 9 8 12 19 24 29 33 32 33 32 30 27 25 21 17 11 9 11 8 2 7 4 9 16
8 8 7 7 5 5 3 4 5 7 5 4 3 7 7 2 11 13 11 11 10 11 11 12 20 24 29 33 33 33 31 28 26 22 16 15 10 11 14 12 7 7 7 7
6 7 6 8 6 6 3 4 6 4 2 3 3 5 6 1 8 8 7 8 8 10 11 12 16 22 27 29 29 32 34 34 30 24 21 22 23 18 18 15 10 8 7 9
6 6 4 3 6 7 8 3 2 3 3 2 5 1 7 9 4 6 8 9 8 8 9 10 15 20 23 24 27 28 30 31 32 32 28 25 23 19 17 17 15 14 11 7
6 1 3 6 2 3 4 2 3 3 3 1 8 6 5 5 7 6 7 8 9 8 7 12 18 19 21 21 23 25 26 28 28 29 29 29 28 25 24 22 21 19 16 14
2 5 2 3 2 4 3 4 2 3 1 6 3 2 8 3 5 10 13 10 8 8 7 7 11 16 19 22 23 24 25 27 27 28 27 26 26 26 26 26 24 24 21 20
4 4 8 3 5 6 6 5 4 5 3 5 6 5 4 8 16 16 11 8 8 7 6 7 11 13 14 15 16 18 21 23 23 23 25 25 24 24 24 24 23 23 23 22
5 4 2 2 1 6 4 4 3 2 1 2 4 4 5 8 11 11 8 7 7 6 6 6 9 10 10 11 12 15 18 19 20 20 20 21 21 21 21 21 22 22 23 23
2 1 2 2 2 3 3 5 2 2 1 5 5 4 4 5 9 7 6 7 6 5 5 5 9 10 9 9 9 9 12 15 15 15 15 16 16 16 18 20 22 23 23 23
3 4 4 4 5 5 1 1 2 4 4 4 2 5 5 7 10 10 9 8 9 8 6 5 7 10 8 7 7 6 6 10 12 12 14 16 16 18 18 21 24 25 24 24
1 4 4 8 4 5 6 6 6 3 5 3 3 9 3 7 10 9 10 10 8 7 7 6 10 9 8 7 6 6 5 5 7 8 9 14 16 21 22 25 25 27 26 26
5 1 2 9 4 3 3 2 4 3 2 7 6 6 2 4 5 6 8 8 6 6 7 7 9 9 8 7 4 3 5 7 8 12 15 18 22 26 25 26 27 26 27 28
5 3 7 9 4 4 2 4 2 4 3 3 10 15 19 9 7 6 8 7 7 8 8 6 6 7 5 3 1 2 6 10 13 16 19 22 26 32 33 31 32 33 32 33
5 5 3 5 4 3 4 8 7 7 11 7 20 17 19 14 5 2 3 3 7 6 7 7 7 10 9 6 6 6 7 9 13 17 20 22 27 33 34 35 38 39 38 37
2 2 2 4 4 4 7 15 11 13 15 16 19 23 17 1 2 4 6 6 5 5 6 7 8 13 13 12 10 7 5 7 10 13 20 24 30 33 34 36 37 36 34 34
5 5 3 5 2 3 7 14 15 10 11 7 9 10 3 4 5 4 3 2 4 4 4 5 8 14 12 9 6 4 5 6 10 14 20 25 26 29 31 32 34 34 35 36
6 6 3 4 3 1 8 3 5 8 7 5 2 4 6 5 5 4 5 4 6 5 6 6 6 3 9 6 2 2 3 8 15 20 22 22 21 23 28 33 33 34 34 35
6 5 1 4 5 6 12 6 6 4 7 6 6 4 7 5 1 3 4 1 4 5 7 7 6 9 7 4 2 4 11 15 17 20 18 19 24 31 32 30 30 30 32 34
7 5 5 3 6 9 6 4 5 5 9 8 6 7 7 4 1 4 5 6 7 10 8 9 8 8 6 0 6 12 15 17 17 15 19 21 24 25 28 29 31 31 30 33
3 2 15 14 6 7 6 6 4 5 8 3 6 6 6 5 6 6 5 7 12 10 10 10 8 6 2 5 11 14 17 17 16 22 23 23 24 26 28 30 29 32 32 32
7 7 5 2 1 8 8 2 7 7 3 5 6 7 6 7 8 7 8 7 10 12 12 8 5 2 3 7 11 14 15 17 22 23 25 28 29 28 26 29 31 29 30 31
2 8 5 9 7 5 8 7 8 6 5 6 7 9 10 8 6 8 7 7 10 14 11 7 3 3 4 8 11 13 17 20 22 24 27 29 28 27 26 26 28 27 27 27
5 3 3 4 6 8 9 7 7 8 8 8 9 10 7 9 8 8 7 6 9 13 9 5 4 7 8 10 12 15 18 19 21 25 27 24 24 27 24 26 26 26 27 26
6 5 5 6 10 7 8 9 13 9 9 8 7 8 10 9 9 9 6 6 11 11 7 5 5 8 11 13 16 18 17 18 21 24 23 22 21 23 24 23 27 27 29 29
11 18 11 13 15 10 12 9 6 9 11 11 8 6 7 8 9 5 5 11 10 7 4 4 7 8 12 17 18 17 16 16 19 23 20 22 23 22 22 25 27 30 29 31

GFSCGP_925_spd_024.txt.gz
Wind_Speed
0 4 7 12 11 4 4 4 5 4 8 3 7 4 11 9 2 8 7 8 9 10 11 17 23 28 30 33 33 32 31 29 25 21 16 16 19 16 11 7 4 4 7 10
4 6 14 3 5 7 5 4 6 6 6 1 7 8 11 6 4 5 10 8 8 7 8 16 21 28 32 33 35 34 32 29 27 24 20 14 12 18 20 19 17 13 10 6
8 7 5 6 5 5 5 6 5 8 4 2 2 7 6 4 9 12 10 9 8 7 7 7 17 24 30 33 34 36 35 33 29 25 19 17 15 18 19 21 17 19 14 11
5 7 5 3 3 5 5 6 6 5 3 4 1 5 6 4 6 7 7 7 6 7 6 9 13 21 27 27 30 32 33 34 33 29 29 29 27 23 21 20 19 17 16 15
6 2 4 6 8 8 8 3 3 0 2 1 3 2 6 7 4 5 6 7 6 5 6 7 14 19 21 24 27 28 30 31 30 31 31 30 30 26 26 26 24 21 19 19
6 2 3 6 2 4 3 3 5 4 3 2 6 7 4 3 3 7 6 7 6 5 6 11 14 17 19 20 25 26 27 29 29 29 28 29 28 28 29 30 31 31 29 27
3 5 3 2 3 2 4 5 3 3 1 6 3 3 6 5 3 13 15 9 7 6 6 6 10 13 17 20 22 24 25 27 27 28 28 27 27 27 28 28 28 29 31 31
5 3 9 5 6 7 6 8 5 7 4 5 4 5 3 4 6 12 10 9 8 7 5 5 8 11 14 16 18 20 21 22 23 24 24 23 24 24 24 25 25 25 25 26
6 5 2 2 3 6 4 3 1 4 2 3 4 1 2 3 5 6 8 7 7 7 6 6 8 9 11 12 13 16 16 17 17 17 16 18 19 20 22 23 24 24 23 24
5 2 4 2 3 3 4 6 2 2 1 5 4 5 5 8 9 7 8 8 8 8 7 6 11 11 10 10 10 11 11 12 12 12 14 15 17 19 20 21 23 24 25 26
4 2 1 3 5 8 2 3 2 3 5 5 2 6 3 8 12 14 10 9 9 9 8 6 12 12 12 11 9 8 8 8 8 8 10 12 14 18 19 20 21 22 22 23
3 4 4 6 2 4 1 6 6 4 5 3 3 8 1 7 11 8 9 9 8 5 7 9 15 16 14 12 10 8 6 4 4 5 7 9 11 16 21 23 22 22 25 25
7 2 2 6 4 1 4 3 4 5 3 5 4 6 0 3 4 7 7 7 7 7 7 7 12 14 14 13 11 9 6 3 2 4 8 11 14 19 24 27 26 26 28 30
6 5 7 11 5 4 3 4 3 4 3 3 9 5 8 7 7 6 7 8 8 9 8 7 8 15 16 15 12 11 8 5 2 5 10 14 17 20 25 30 31 32 32 34
4 6 3 3 4 3 4 8 8 8 6 8 15 9 15 5 6 7 7 4 5 7 8 9 8 15 17 15 13 11 9 7 7 9 12 14 18 23 28 30 32 34 36 37
1 2 3 3 1 5 6 13 6 10 13 10 15 19 12 8 2 2 5 5 6 7 7 8 9 14 17 18 18 14 10 7 5 7 10 14 20 26 27 29 32 36 39 38
5 6 3 6 3 3 7 9 15 13 9 8 11 13 1 5 6 6 7 5 6 5 6 7 10 20 24 23 17 12 9 6 7 9 13 17 19 21 24 30 36 37 38 38
5 5 2 3 3 2 5 3 4 9 9 5 2 3 6 5 4 6 6 5 7 7 7 7 12 15 18 15 14 11 8 7 7 10 13 15 17 22 28 30 32 34 33 32
2 4 2 4 4 7 12 6 7 7 8 7 7 3 6 4 3 4 5 6 6 6 11 13 14 14 14 16 13 10 7 7 10 12 11 14 20 23 25 29 31 31 32 32
4 1 5 3 6 10 6 2 4 4 5 6 7 8 6 6 3 6 6 5 9 14 14 16 15 15 17 14 10 7 5 7 8 9 14 20 21 23 26 28 30 30 30 30
3 1 13 10 3 8 8 5 2 5 8 4 6 7 7 6 8 5 7 6 13 18 17 16 19 20 17 12 8 5 4 5 7 13 16 18 20 23 24 26 28 30 32 28
8 8 4 2 3 8 8 5 7 6 3 5 6 6 11 12 7 8 8 7 14 14 13 18 20 18 13 10 6 4 4 7 11 13 15 18 19 20 22 25 29 30 30 26
2 7 6 10 7 3 8 7 13 5 6 6 7 7 12 11 9 10 10 9 14 17 20 22 20 16 11 8 6 5 6 10 11 13 16 18 19 19 21 23 28 29 25 23
4 4 4 4 5 5 9 12 5 8 8 8 8 10 9 11 11 11 8 8 11 18 22 21 16 13 10 8 6 7 8 10 12 14 16 19 19 22 22 22 25 24 24 21
5 5 4 4 5 5 9 9 9 10 9 9 9 11 13 11 11 10 8 8 15 17 18 19 17 14 11 8 6 7 8 10 11 14 16 18 20 21 23 22 23 24 25 24
7 9 5 7 17 10 11 8 8 9 12 13 12 11 11 12 13 9 8 15 15 18 18 15 12 10 8 7 7 7 8 9 9 12 16 18 20 21 21 21 24 26 23 24

GFSCGP_925_spd_027.txt.gz
Wind_Speed
2 4 7 13 10 3 3 4 5 3 4 1 6 6 12 6 6 8 7 7 7 8 10 18 23 27 30 32 33 33 32 29 25 21 19 26 27 25 24 24 21 19 15 11
4 6 12 4 5 6 2 2 6 5 5 5 7 9 5 7 4 5 8 7 7 5 7 15 22 27 31 31 33 34 34 31 28 26 24 20 16 24 27 24 25 22 19 18
8 7 5 7 5 6 5 6 4 7 4 2 3 6 2 5 8 10 8 6 6 6 6 8 16 22 26 29 31 34 34 32 31 28 23 22 20 24 27 28 26 25 23 22
6 4 5 4 5 7 5 8 8 5 3 4 2 4 5 5 5 5 5 6 6 6 5 7 11 18 21 23 26 29 31 31 30 30 32 33 32 27 26 26 25 25 24 24
7 4 4 5 7 7 7 4 6 3 4 3 4 2 6 7 4 6 6 5 5 5 5 5 10 15 17 20 25 27 29 30 29 30 31 31 31 28 27 27 28 28 29 29
5 1 5 7 2 6 5 4 5 4 3 1 8 8 4 5 4 5 6 8 7 6 6 8 10 13 16 19 21 25 27 28 26 28 29 29 30 29 28 28 29 29 28 29
1 4 1 2 4 3 4 5 3 4 2 5 4 2 7 3 4 9 14 9 8 7 6 6 8 10 14 16 17 20 22 25 23 25 26 26 27 26 26 25 25 25 26 27
6 4 9 6 7 6 6 7 5 7 4 4 1 6 4 2 4 9 11 9 7 7 6 6 9 10 12 13 15 16 18 19 20 22 23 22 22 22 22 21 21 22 22 22
6 5 0 2 3 7 5 4 3 5 2 2 4 3 3 4 3 5 8 7 8 7 7 7 11 11 12 12 12 12 14 16 16 17 18 19 19 19 20 20 19 20 20 21
5 1 1 2 2 3 4 6 3 2 1 5 5 6 5 6 10 8 8 10 8 7 8 7 12 11 10 10 10 10 11 12 13 13 13 14 15 16 17 17 19 18 19 21
5 3 2 3 5 8 2 3 3 3 4 5 2 7 4 10 13 14 13 11 11 10 8 7 13 13 12 12 11 10 9 9 9 8 8 8 9 12 14 17 18 19 20 22
4 4 3 7 1 3 2 7 7 6 7 3 2 14 4 7 12 11 10 11 8 8 8 10 16 16 16 14 13 11 8 7 5 5 4 5 6 9 14 17 19 20 22 23
7 1 1 5 2 1 4 4 3 4 4 6 5 7 4 5 6 6 7 7 7 8 8 7 14 18 18 17 15 13 12 9 6 3 0 3 6 10 14 18 22 23 25 28
3 5 7 12 5 4 4 5 5 5 4 5 15 8 2 4 7 6 7 6 7 7 8 7 9 18 20 19 18 16 14 11 8 5 3 4 8 12 16 21 24 26 29 32
5 8 5 3 5 3 4 5 8 8 8 11 10 10 6 10 9 9 7 7 6 7 8 10 9 15 21 20 20 18 16 14 11 9 6 5 9 14 18 22 25 28 32 34
1 3 3 3 2 4 5 7 8 11 5 6 9 17 9 5 6 5 8 7 7 7 7 7 9 14 19 22 22 20 18 15 13 11 6 8 13 17 20 22 27 31 33 34
6 6 4 11 1 3 8 11 15 10 10 9 13 18 4 6 6 7 8 7 8 7 7 8 10 18 23 25 26 22 17 15 13 9 9 12 16 18 20 25 28 30 32 33
6 7 2 3 2 5 3 3 4 7 8 7 2 3 6 4 2 4 4 6 7 6 6 6 10 16 23 24 23 18 17 16 12 10 11 14 16 18 22 25 27 28 30 32
5 5 4 4 5 7 7 5 7 7 9 9 12 6 3 1 3 5 5 5 6 7 11 14 16 18 19 19 18 18 17 14 11 10 12 14 15 19 20 22 25 27 29 32
3 4 4 3 4 8 4 2 5 5 7 7 6 5 6 5 1 6 6 6 8 11 10 14 17 16 16 17 20 21 18 14 11 11 12 13 15 16 18 20 23 26 26 30
3 1 9 5 5 8 6 5 3 6 7 4 6 6 6 5 8 5 5 7 15 15 18 19 18 20 22 21 21 19 16 15 13 13 14 13 13 15 17 19 21 24 26 28
8 8 4 2 2 9 7 5 9 5 1 6 6 6 8 9 8 6 7 8 11 15 17 18 18 22 22 22 21 17 16 14 14 14 13 13 13 14 17 19 21 23 25 26
3 7 6 11 7 1 7 5 10 5 6 6 5 6 8 8 8 9 8 10 16 22 23 21 22 23 24 23 20 18 15 14 14 13 12 12 13 13 15 18 21 24 23 23
5 4 3 4 4 5 7 8 4 6 8 6 6 6 7 10 10 10 9 9 12 21 22 22 22 24 26 23 19 16 14 13 13 12 11 11 12 13 14 16 18 21 23 22
5 8 6 2 4 3 8 7 6 8 8 7 6 7 10 10 11 10 9 8 17 22 20 21 26 27 27 22 18 15 13 12 12 11 11 11 11 13 15 16 17 19 21 19
6 7 4 5 8 6 6 6 8 9 12 11 10 8 10 11 14 11 11 18 20 19 18 20 23 23 20 19 17 15 13 13 12 12 11 11 12 13 14 17 22 18 17 18

GFSCGP_925_spd_030.txt.gz
Wind_Speed
1 4 8 13 10 3 4 4 6 3 3 2 6 7 12 4 7 7 7 6 6 6 8 16 21 23 25 28 30 29 28 26 21 22 27 30 31 28 28 28 24 23 21 20
4 7 10 4 5 5 3 4 6 5 4 5 6 9 2 3 2 5 8 6 6 4 5 13 19 23 25 26 29 31 29 27 27 27 24 22 25 29 27 26 25 22 21 20
8 5 6 6 4 6 5 7 4 7 1 2 1 7 4 3 4 6 5 5 5 5 5 7 14 18 21 25 28 28 29 28 25 25 23 23 25 26 28 29 27 26 24 23
6 3 6 4 6 7 5 8 7 4 3 4 2 5 4 3 3 3 5 6 6 6 4 5 9 14 18 20 23 27 27 27 27 27 30 32 33 29 28 29 29 29 29 29
7 7 5 6 6 7 6 5 5 3 3 1 3 0 6 5 5 6 7 7 6 6 6 6 8 11 14 17 22 25 27 28 27 28 29 32 33 29 26 26 27 28 27 28
5 2 6 7 2 6 9 6 6 4 3 1 8 7 4 5 5 5 6 7 7 6 5 6 8 9 13 15 18 22 25 26 26 26 27 27 26 24 25 24 25 25 24 25
1 4 3 3 5 2 4 6 0 3 1 6 1 2 7 5 3 5 14 12 9 7 6 6 8 9 10 13 15 18 21 23 22 23 23 23 23 22 23 22 22 22 23 24
7 4 10 6 7 8 7 6 5 7 4 4 2 6 5 3 5 7 9 11 9 8 6 6 9 9 10 12 13 15 17 20 19 20 21 20 20 20 20 19 18 19 19 19
6 5 1 2 2 4 5 4 2 6 2 2 5 4 2 1 1 4 7 10 10 8 8 8 12 12 12 12 11 12 14 16 17 17 17 18 17 17 17 16 16 17 17 18
7 2 1 2 3 4 4 6 4 2 2 5 4 4 5 5 8 6 8 11 8 8 8 8 15 15 13 11 12 12 12 14 14 13 12 12 13 13 14 14 16 16 16 16
6 4 1 4 5 9 3 3 3 3 4 5 2 5 6 7 9 13 12 11 11 11 10 7 16 17 16 15 14 14 13 12 11 10 9 7 7 8 10 12 13 14 15 17
7 4 4 6 2 1 0 6 7 6 6 2 1 11 2 4 11 15 13 11 9 8 8 11 18 19 18 18 17 16 14 12 11 9 6 4 4 5 7 10 14 16 18 20
9 3 2 5 1 1 4 5 3 4 3 7 6 8 3 4 7 8 9 9 8 8 8 8 16 20 23 21 20 18 17 14 11 9 6 3 1 3 7 11 14 17 20 23
7 5 8 10 6 5 6 7 6 6 5 5 13 14 3 4 8 7 8 7 8 8 9 8 8 19 25 24 23 21 19 16 14 12 10 7 4 4 8 12 15 18 21 24
5 7 5 3 4 5 7 7 10 10 12 13 13 13 7 11 10 10 8 6 7 8 8 8 10 15 23 24 23 22 20 19 17 15 14 11 7 6 9 13 17 19 22 24
3 1 3 2 2 1 5 9 11 17 4 6 4 11 7 5 4 5 8 8 8 9 8 8 9 14 20 26 27 26 24 22 20 20 18 14 10 9 12 15 18 20 23 25
5 6 4 5 4 4 9 10 15 6 5 11 12 14 4 5 7 9 9 8 8 8 8 7 9 17 23 28 28 27 26 22 23 22 19 15 12 12 13 16 18 20 24 25
6 4 2 4 3 7 2 4 1 14 8 9 1 4 6 5 5 5 5 7 9 8 8 7 12 15 20 21 23 24 22 23 23 21 19 15 13 13 15 17 19 21 23 25
2 5 3 5 5 6 4 6 7 8 10 10 11 9 6 5 4 6 7 8 8 8 13 15 14 12 12 15 20 20 20 23 23 23 19 16 14 15 16 18 20 21 23 24
3 2 5 4 4 7 2 1 4 4 6 9 9 9 7 6 2 5 6 6 9 14 13 14 12 11 13 16 16 18 21 24 26 22 17 14 14 15 17 18 19 20 21 24
4 1 9 5 5 7 5 5 5 6 7 3 5 5 7 5 6 4 4 6 17 18 19 13 11 14 17 17 17 21 24 27 22 17 15 14 14 15 16 17 16 19 22 24
7 8 4 2 3 9 7 4 8 5 2 5 5 6 8 7 6 6 7 6 10 16 17 15 15 18 19 19 20 25 26 23 19 16 15 14 14 14 15 17 17 18 20 23
3 6 6 10 6 0 14 3 5 5 6 5 6 7 8 7 7 8 7 9 13 20 22 20 18 21 21 21 23 26 26 21 18 16 15 15 14 14 15 17 18 19 19 21
4 3 3 3 4 5 9 5 3 6 7 6 6 5 6 7 8 7 7 7 11 21 24 27 20 21 24 24 24 25 22 19 18 17 16 14 15 15 15 16 17 19 20 20
4 6 6 1 1 2 6 7 6 9 7 5 5 7 9 7 8 7 7 7 14 21 25 22 22 24 28 25 24 24 21 19 18 16 15 15 15 15 17 17 17 18 19 18
5 7 5 4 8 6 6 9 11 8 8 9 8 6 7 8 9 6 8 17 19 21 24 19 22 22 24 22 23 22 20 18 16 16 15 15 15 16 17 18 20 15 17 16

GFSCGP_925_spd_033.txt.gz
Wind_Speed
2 3 8 12 9 3 5 4 6 2 3 3 6 6 7 3 5 6 5 5 5 6 6 13 17 18 20 23 24 23 20 20 24 26 29 31 31 28 28 26 22 20 18 18
4 7 8 5 5 4 4 4 6 5 3 2 5 9 7 1 3 5 8 7 7 5 5 11 16 21 24 24 24 25 26 23 23 25 25 26 29 30 29 27 26 24 23 22
8 3 8 7 5 6 5 7 5 6 1 2 2 7 4 1 2 4 4 5 4 6 7 5 12 17 21 25 24 25 24 22 25 27 28 30 32 30 30 30 30 29 27 27
6 2 6 4 6 7 6 8 7 5 4 4 1 4 4 3 3 4 5 6 6 6 4 5 8 13 18 20 23 25 26 26 24 23 26 29 31 31 28 29 28 28 27 28
7 7 5 5 7 7 6 6 7 4 4 2 3 0 7 3 6 8 7 6 6 6 5 6 7 9 12 16 21 23 25 25 25 25 25 29 33 30 27 26 26 25 25 25
4 1 6 8 2 5 9 6 6 4 3 2 8 8 4 5 6 4 10 12 11 8 6 9 8 9 11 13 19 21 23 24 23 24 26 27 28 26 25 23 23 23 22 22
1 5 3 4 6 3 1 6 1 2 1 5 3 3 7 3 2 2 14 12 10 10 9 9 12 13 13 12 14 18 20 23 22 22 23 23 23 23 23 21 20 19 19 20
7 5 11 7 7 8 8 6 5 7 4 3 2 6 6 2 1 2 7 13 12 10 7 8 14 15 14 13 13 16 18 20 18 18 20 20 19 20 20 18 17 18 17 16
7 6 0 3 4 7 6 6 4 6 2 3 4 4 3 1 1 2 8 12 15 13 11 10 15 16 16 16 16 16 17 18 17 17 18 18 17 16 16 15 14 14 13 13
7 3 2 3 3 2 5 7 3 2 2 4 3 4 5 6 8 6 9 14 13 10 9 10 19 20 18 17 17 17 17 18 18 16 15 15 14 13 12 11 11 10 10 10
6 4 1 4 7 10 4 3 2 4 4 5 2 5 6 9 9 14 13 16 16 15 14 12 18 23 21 19 20 19 19 19 19 17 15 13 12 10 9 8 8 8 8 10
9 5 5 8 1 1 2 7 7 4 5 2 1 6 1 4 8 11 13 13 11 12 13 15 21 24 23 24 22 22 22 21 19 18 15 12 9 7 5 5 6 8 9 11
10 4 2 4 2 2 6 5 4 5 3 8 4 5 0 3 4 7 10 13 13 12 11 10 15 21 26 28 25 25 24 24 21 19 16 14 11 8 4 2 4 7 10 12
14 6 9 16 6 6 7 7 7 8 4 6 13 9 6 6 8 7 8 7 8 9 11 9 10 19 25 29 30 28 27 25 23 21 18 15 13 9 5 1 4 8 11 13
7 8 5 4 5 6 6 9 13 15 16 10 12 13 8 13 12 12 9 7 8 10 8 8 10 16 24 28 30 30 29 27 25 24 21 19 15 12 8 5 6 8 10 12
2 3 6 5 1 1 4 10 12 14 10 11 5 10 6 7 6 6 8 9 8 8 8 9 10 16 21 29 32 31 30 29 27 26 26 22 19 15 12 9 8 8 10 13
7 6 5 10 3 4 7 12 14 6 5 11 11 17 6 5 7 8 9 9 9 7 8 8 10 17 21 25 29 32 31 29 28 29 26 24 21 19 15 11 9 10 12 15
7 6 2 3 2 7 2 4 1 11 6 4 2 4 7 6 4 4 6 8 8 8 7 7 13 14 16 17 20 25 25 26 27 28 27 25 23 20 15 13 11 11 13 15
1 6 4 5 4 6 3 5 8 9 9 10 12 6 5 4 4 3 4 5 6 7 12 17 16 15 13 15 17 19 22 24 25 28 28 27 24 20 16 13 11 12 14 15
1 2 5 3 5 9 3 2 3 4 5 8 9 7 8 6 2 4 6 5 8 13 14 18 17 15 14 14 15 19 22 22 25 28 29 26 22 19 16 12 12 12 14 16
4 1 9 5 4 5 5 4 4 5 5 4 6 5 8 5 4 5 6 6 14 18 20 18 18 21 19 15 16 19 19 22 25 23 23 23 21 17 14 13 12 13 14 16
7 8 4 3 3 7 6 4 9 5 2 5 5 6 8 5 6 5 6 6 9 14 17 19 21 23 19 16 18 21 23 23 21 21 22 22 19 16 14 13 13 13 15 17
2 4 5 8 5 0 14 3 5 4 6 5 6 6 7 9 7 5 4 6 9 14 19 23 28 25 20 20 21 24 27 23 21 22 23 20 18 16 14 14 13 13 14 16
4 2 2 3 3 3 11 2 3 4 6 6 5 6 7 6 6 6 4 6 9 16 21 24 25 23 24 23 23 26 24 20 21 23 22 19 18 16 14 14 14 15 15 17
3 7 6 1 1 1 5 7 6 7 4 5 4 7 9 7 6 7 6 6 14 18 19 20 22 26 28 26 24 24 23 20 22 21 20 19 17 15 14 14 15 16 16 16
5 6 4 4 9 6 6 12 10 8 8 9 8 5 5 8 9 6 7 15 15 15 15 15 18 21 25 21 19 20 20 19 20 20 19 17 16 14 14 15 17 15 14 14

GFSCGP_925_spd_036.txt.gz
Wind_Speed
2 7 12 18 16 4 1 4 9 2 1 4 11 13 11 8 6 8 7 6 6 5 6 8 9 8 9 10 12 13 14 12 13 15 16 16 19 18 20 20 19 18 17 17
5 13 14 2 8 8 5 8 14 5 3 4 9 13 14 11 9 10 10 10 10 8 7 8 9 10 11 12 13 14 15 14 13 13 16 15 18 19 19 20 23 22 21 20
12 3 7 9 7 10 11 14 12 9 2 5 5 15 19 7 6 6 9 10 11 13 13 11 9 9 10 12 12 16 18 19 22 23 23 22 21 19 18 19 22 24 23 24
9 3 7 11 10 12 14 12 10 7 4 9 2 7 5 9 9 10 12 13 13 12 9 8 10 11 10 11 12 14 15 16 17 16 16 19 17 17 15 16 18 21 21 22
6 9 9 10 9 11 6 5 9 7 9 6 8 7 7 4 11 13 15 15 15 13 12 11 10 11 10 11 13 16 18 19 19 19 20 20 21 19 16 15 16 18 20 20
4 1 4 4 3 6 13 7 5 3 2 8 15 13 7 8 8 13 16 18 18 16 14 14 10 9 9 10 13 16 18 19 19 18 18 20 20 17 16 14 13 12 13 15
4 9 4 3 5 3 7 11 4 5 5 7 1 10 12 7 5 7 21 20 18 16 14 13 14 13 12 12 12 15 16 18 17 18 19 18 17 17 16 13 12 11 10 11
10 7 15 13 18 10 17 14 6 7 6 2 2 8 5 1 5 4 11 19 19 18 15 16 20 18 17 16 15 15 15 17 17 16 18 17 16 14 14 13 12 11 10 9
9 7 3 4 4 14 8 10 3 4 1 2 6 5 7 4 6 6 11 17 19 19 18 17 20 19 19 18 17 17 17 16 15 17 17 16 15 14 14 13 11 10 9 8
5 5 2 2 2 1 5 10 4 4 5 7 6 7 9 9 13 11 13 18 19 18 18 16 21 21 20 18 17 17 16 17 18 17 16 15 15 13 13 11 9 8 7 4
5 4 4 6 12 17 6 7 5 3 4 4 5 5 6 12 15 18 17 18 20 21 20 18 22 21 20 18 18 18 18 18 18 18 17 17 15 13 12 10 9 8 5 3
10 2 6 11 1 2 11 10 13 6 6 4 3 6 3 2 8 13 14 16 18 19 19 20 24 23 22 21 20 21 20 19 19 19 19 17 16 15 13 12 9 7 4 1
12 5 5 3 3 2 9 10 13 6 2 12 7 5 3 3 5 8 10 13 16 18 19 19 23 24 24 23 23 23 23 22 20 21 20 18 17 16 14 12 10 7 3 1
18 8 16 17 5 10 10 14 15 17 10 16 20 11 7 8 9 9 10 12 15 17 18 18 18 24 25 24 24 24 23 23 22 22 21 20 20 18 15 14 11 7 4 3
11 15 19 21 9 7 8 18 21 25 31 16 20 20 14 15 15 14 13 12 15 17 18 18 17 21 24 24 24 23 22 23 23 24 22 22 21 20 19 16 13 9 6 6
2 13 17 19 21 14 13 17 25 27 27 26 15 16 8 14 5 8 11 12 16 17 17 17 16 20 22 24 25 24 24 25 25 25 25 22 22 23 22 18 14 11 9 9
12 14 8 16 15 4 7 26 20 17 21 19 20 14 7 7 12 13 13 15 16 15 16 15 15 19 20 21 22 24 25 24 31 34 33 32 29 26 24 20 17 14 12 12
12 18 8 5 6 10 6 3 16 17 12 12 2 5 7 5 6 4 5 11 11 10 11 11 13 14 15 16 18 18 22 28 31 33 33 33 30 29 26 23 19 16 15 14
2 6 4 4 7 6 1 4 9 12 14 11 13 5 5 5 3 3 5 6 9 10 10 11 13 12 13 16 16 18 20 22 26 31 34 34 32 31 28 26 21 18 16 16
2 4 8 4 5 9 1 2 3 4 6 7 12 8 8 8 6 7 9 7 6 9 11 11 11 12 13 13 14 16 18 21 25 29 32 30 31 32 30 25 21 19 17 16
4 2 13 6 6 5 4 6 3 6 4 4 7 8 12 7 3 4 9 6 7 9 10 8 12 15 17 15 16 18 19 22 25 24 25 26 27 29 27 24 21 19 17 16
9 8 5 4 5 9 7 5 8 3 2 5 6 9 10 6 7 8 8 6 7 8 8 12 15 18 19 20 21 21 21 22 22 22 22 23 25 26 25 23 21 18 17 16
4 4 4 7 3 2 11 3 2 2 4 5 6 6 9 8 7 9 7 7 7 9 12 14 19 21 22 25 24 23 24 23 23 22 23 24 24 24 22 21 19 16 16 15
5 4 4 4 4 3 10 2 3 4 5 6 4 7 9 9 9 8 6 6 6 9 12 15 17 22 24 26 25 26 23 21 21 24 23 23 23 23 21 19 18 17 16 14
2 9 6 1 1 2 4 5 7 6 3 5 4 5 8 7 7 7 6 5 9 13 13 13 17 22 28 28 26 24 24 22 21 22 21 21 21 20 18 19 18 18 19 19
5 6 4 3 7 3 9 15 11 10 10 7 7 4 3 7 8 6 6 14 15 15 13 12 16 20 23 20 20 20 21 21 21 20 19 18 18 18 18 17 17 20 18 15

GFSCGP_925_spd_042.txt.gz
Wind_Speed
6 4 7 12 11 11 9 7 8 4 4 5 9 10 10 12 9 10 10 10 9 9 11 9 8 10 11 11 13 14 20 22 24 22 20 20 22 21 20 18 17 18 17 16
3 9 12 9 9 6 9 9 9 8 7 3 7 11 9 13 14 17 14 11 11 9 8 11 12 13 13 14 14 17 17 14 10 12 17 16 21 21 22 22 21 20 21 21
11 3 4 13 5 5 7 8 7 8 4 4 6 8 13 11 14 14 10 10 10 14 11 9 15 15 15 15 14 14 14 15 15 16 19 22 24 22 21 21 23 22 22 22
10 13 3 6 8 8 8 7 11 7 3 4 6 5 7 9 13 16 15 10 11 13 10 12 17 19 18 17 16 17 15 15 17 20 25 22 22 22 18 20 21 21 20 21
5 7 9 7 6 8 4 5 0 3 6 5 5 7 6 13 16 16 16 10 10 12 14 12 18 22 20 20 19 20 21 22 18 18 20 23 25 23 21 20 21 20 20 19
4 2 4 5 4 1 9 5 2 1 1 6 13 13 6 12 16 9 11 13 12 13 12 15 20 23 21 20 21 22 22 22 21 22 20 24 26 25 23 19 19 17 18 17
6 9 4 3 5 4 5 6 2 2 1 7 1 10 16 5 3 6 17 17 15 15 14 13 15 20 22 23 22 22 22 21 20 20 21 22 22 22 21 18 18 16 15 15
11 6 17 9 12 7 9 9 5 7 5 4 3 7 6 0 6 4 13 16 16 16 14 14 18 19 23 25 24 23 24 25 23 23 23 22 21 21 18 17 16 14 14 14
7 7 6 6 5 7 5 8 10 4 1 2 6 7 8 5 3 1 10 15 17 17 15 15 19 21 25 28 27 27 26 24 24 25 25 24 22 20 19 18 16 15 14 13
2 3 1 3 5 4 4 4 4 2 3 6 5 10 10 6 11 8 12 17 17 17 16 15 20 23 25 27 27 25 25 27 26 25 25 23 21 20 20 19 17 16 14 12
4 2 1 6 8 12 4 4 5 4 5 4 5 7 4 14 15 18 15 17 18 19 18 16 21 24 27 29 29 28 27 27 26 25 24 23 22 21 20 19 18 16 14 12
11 1 5 9 4 0 5 8 9 5 6 6 2 20 4 6 10 13 16 16 17 18 17 16 22 24 26 28 31 30 29 28 27 26 25 24 24 23 22 20 19 17 15 12
12 5 0 4 2 2 6 8 16 13 1 21 5 15 3 5 5 9 13 14 15 16 16 15 18 23 25 27 30 31 31 30 29 27 25 25 25 25 23 22 20 18 16 13
14 5 11 17 6 8 7 11 18 18 11 6 25 19 3 5 5 7 10 14 15 16 17 15 15 22 25 27 28 30 32 32 31 30 29 29 28 27 24 22 21 20 17 15
12 11 11 21 18 6 6 10 20 24 28 16 27 24 20 10 12 15 10 12 14 16 18 19 17 17 25 26 27 28 31 33 34 32 32 31 28 25 24 24 22 21 19 17
1 8 12 22 12 15 19 14 18 22 24 27 30 34 4 11 12 9 13 15 16 17 19 18 16 18 24 28 28 30 31 34 34 35 34 31 29 28 27 25 25 24 21 19
7 3 5 19 8 13 11 35 23 24 25 23 25 36 11 11 10 11 12 13 13 12 15 15 15 20 24 28 29 31 31 34 35 36 34 32 31 30 29 29 27 26 24 22
11 14 8 10 5 12 12 9 26 29 30 25 27 6 5 9 7 7 10 16 13 10 9 9 13 17 24 27 31 30 33 34 37 35 33 31 31 31 31 32 30 28 26 25
15 13 7 7 13 14 14 5 9 12 26 23 24 14 8 7 5 2 3 6 8 8 10 17 21 22 25 29 34 34 34 33 35 35 33 33 34 34 34 32 32 31 28 26
2 17 13 4 7 11 3 4 0 8 16 12 17 17 11 10 10 5 8 8 9 13 17 19 23 26 28 29 31 31 30 31 32 33 33 32 33 35 34 33 33 31 30 28
4 5 15 15 7 5 5 6 1 6 6 2 0 7 11 10 4 6 9 7 8 13 18 22 23 25 27 25 27 28 28 31 31 28 27 26 28 31 32 32 30 30 29 28
7 7 4 5 4 9 6 3 9 3 3 1 4 5 6 6 6 6 8 9 9 10 17 21 22 21 20 23 25 26 27 25 23 21 22 22 23 25 27 28 28 27 27 28
5 6 5 6 3 1 1 1 2 1 4 3 5 4 7 8 5 6 7 9 8 16 19 19 21 19 17 20 22 23 21 18 19 19 20 21 21 23 24 25 26 26 26 27
2 1 2 4 1 2 2 2 4 2 3 3 4 5 7 7 8 7 7 7 7 14 18 19 20 18 17 16 16 15 14 15 19 20 21 21 22 22 22 22 24 26 27 28
2 6 5 1 2 2 7 6 4 3 1 3 4 4 6 9 7 7 6 6 9 16 16 18 16 14 13 13 13 14 16 17 20 19 19 19 19 21 22 23 24 25 25 25
4 5 4 4 7 4 6 9 7 6 5 4 4 4 3 6 8 6 6 10 15 15 15 14 14 13 11 9 8 11 15 18 19 19 19 19 19 19 19 20 20 15 14 15

GFSCGP_925_spd_048.txt.gz
Wind_Speed
0 4 7 13 10 4 4 4 4 4 4 6 8 9 11 9 8 10 10 12 14 16 13 21 20 19 18 19 20 22 25 26 27 28 28 26 25 23 22 21 21 20 19 18
4 8 11 5 5 6 5 5 7 6 4 7 6 11 11 5 9 14 18 16 17 8 9 20 25 24 25 24 24 25 27 29 29 31 30 28 28 23 23 22 20 20 20 21
8 6 5 8 5 6 6 7 5 8 2 3 3 6 9 10 8 7 14 17 13 19 18 15 23 30 28 28 28 28 29 30 29 29 29 29 24 26 24 23 23 23 23 24
6 5 5 5 6 8 7 7 6 5 2 5 3 7 5 6 11 9 17 14 17 14 14 15 23 27 33 32 28 29 29 29 28 28 30 33 33 31 27 28 27 26 24 24
9 8 9 7 7 10 7 4 5 3 3 2 3 5 6 4 8 12 18 13 14 16 21 21 27 31 35 32 31 31 32 29 29 29 31 32 33 29 32 31 30 27 26 24
5 1 7 9 3 8 6 5 6 4 3 4 10 8 5 6 14 9 17 12 14 16 18 18 24 27 34 32 32 34 32 30 30 30 32 33 35 39 37 34 32 29 27 25
3 4 2 4 5 3 5 7 2 3 1 8 3 6 14 7 11 14 16 10 10 11 15 16 16 25 30 37 37 36 35 33 32 31 32 34 37 41 41 38 36 33 30 26
11 7 11 7 12 7 8 9 6 7 5 5 0 7 6 13 12 7 8 8 7 9 12 15 20 26 29 35 39 38 37 35 34 34 35 36 40 41 39 38 36 33 30 27
7 7 1 0 4 13 7 9 5 2 2 1 6 8 7 10 9 10 12 4 7 9 13 15 19 25 29 34 40 40 39 38 37 37 37 39 41 40 39 35 32 30 28 27
5 3 1 1 4 3 6 8 2 1 2 6 5 6 9 4 12 13 13 7 9 8 9 11 17 23 27 32 36 38 39 40 40 39 40 41 40 38 36 35 33 32 30 28
5 5 1 3 7 11 4 5 4 5 6 5 3 7 7 13 11 12 12 9 9 12 13 12 15 21 26 30 35 38 39 39 40 40 40 41 39 37 36 35 34 32 30 27
9 3 5 9 3 3 1 4 6 5 6 5 3 17 6 6 5 8 10 8 9 12 13 12 16 21 24 29 34 37 39 41 41 41 42 41 40 38 38 35 34 32 30 27
10 5 1 5 3 2 5 7 15 2 3 10 6 15 2 5 5 6 9 6 6 9 11 10 13 19 24 28 31 34 38 40 41 41 41 41 41 39 38 36 35 33 30 29
12 6 11 18 4 8 7 9 12 18 10 10 20 20 6 6 6 8 7 5 8 10 13 13 13 17 23 26 30 31 32 38 40 40 40 41 41 40 39 37 36 34 32 31
14 14 9 23 8 9 10 13 21 23 33 12 34 19 21 13 11 9 7 6 8 10 12 15 15 13 23 25 28 31 33 39 42 42 42 42 40 39 37 37 36 33 32 30
1 14 16 25 18 9 6 11 25 30 29 27 30 31 6 8 6 6 10 10 11 13 17 17 16 16 25 30 31 32 35 41 44 42 42 41 39 39 37 36 35 33 32 30
18 12 13 22 15 4 6 35 11 15 22 23 23 37 7 15 14 12 12 12 15 14 17 17 19 19 29 34 35 35 34 35 41 39 39 39 39 38 37 36 35 35 34 31
6 19 13 16 6 15 24 15 25 27 23 18 20 28 8 14 18 16 7 10 15 16 13 14 14 23 27 28 31 30 34 36 36 37 39 39 37 37 37 36 36 35 34 33
14 10 6 8 15 10 12 5 8 12 29 29 25 28 26 20 3 19 10 16 14 12 14 17 23 24 25 28 30 31 33 36 38 36 37 39 38 37 39 40 37 35 33 35
20 19 12 4 10 12 9 4 6 6 17 12 20 28 24 4 9 21 6 7 11 8 16 19 26 28 29 32 37 36 33 33 33 36 39 39 37 41 42 40 39 37 38 39
9 15 20 18 12 5 4 5 4 11 8 1 0 2 5 8 9 5 1 3 4 6 12 21 27 27 29 34 37 30 29 33 38 35 35 36 40 43 40 38 37 38 35 34
5 7 11 10 12 18 8 3 11 4 1 3 2 3 5 5 3 2 1 5 6 8 12 19 19 17 21 30 31 23 26 27 26 29 31 34 36 37 37 35 34 32 31 32
4 7 2 4 2 3 5 2 2 2 4 3 2 2 3 3 1 2 4 5 5 7 12 19 22 20 19 25 30 27 26 24 24 26 29 30 30 31 30 30 29 28 29 30
5 4 5 3 3 4 4 1 2 2 1 2 1 3 4 3 5 3 4 4 5 7 11 15 21 18 17 20 22 20 21 20 22 24 24 24 24 25 26 25 27 28 29 31
3 10 7 4 4 1 8 7 5 3 2 2 0 2 3 6 4 5 4 4 5 9 13 20 21 21 21 19 16 14 18 19 19 19 20 21 22 23 23 24 25 26 27 27
4 5 5 4 3 3 3 9 9 8 5 6 5 2 1 3 6 5 5 6 9 13 17 18 19 22 19 18 16 14 13 14 16 18 19 21 21 22 22 22 19 18 18 16